Time,TemperatureF,DewpointF,PressureIn,WindDirection,WindDirectionDegrees,WindSpeedMPH,WindSpeedGustMPH,Humidity,HourlyPrecipIn,Conditions,Clouds,dailyrainin,SoftwareType,DateUTC
2013-05-25 00:01:00,39.0,33.0,-100.00,WNW,290,6.0,8.0,80,-99.99,,,-99.99,,2013-05-25 06:01:00,
2013-05-25 00:12:00,38.0,33.0,-100.00,West,275,4.0,9.0,82,-99.99,,,-99.99,,2013-05-25 06:12:00,
2013-05-25 00:21:00,38.0,33.0,-100.00,West,275,4.0,9.0,82,-99.99,,,-99.99,,2013-05-25 06:21:00,
2013-05-25 01:01:00,35.0,31.0,-100.00,East,100,1.0,3.0,85,-99.99,,,-99.99,,2013-05-25 07:01:00,
2013-05-25 01:11:00,37.0,32.0,-100.00,NW,320,2.0,3.0,83,-99.99,,,-99.99,,2013-05-25 07:11:00,
2013-05-25 01:21:00,37.0,32.0,-100.00,NW,320,2.0,3.0,83,-99.99,,,-99.99,,2013-05-25 07:21:00,
2013-05-25 01:31:00,35.0,31.0,-100.00,East,100,1.0,3.0,85,-99.99,,,-99.99,,2013-05-25 07:31:00,
2013-05-25 01:42:00,35.0,31.0,-100.00,East,100,1.0,3.0,85,-99.99,,,-99.99,,2013-05-25 07:42:00,
2013-05-25 01:52:00,35.0,31.0,-100.00,East,100,1.0,3.0,85,-99.99,,,-99.99,,2013-05-25 07:52:00,
2013-05-25 02:11:00,34.0,31.0,-100.00,NE,55,2.0,3.0,88,-99.99,,,-99.99,,2013-05-25 08:11:00,
2013-05-25 02:22:00,34.0,31.0,-100.00,NE,55,2.0,3.0,88,-99.99,,,-99.99,,2013-05-25 08:22:00,
2013-05-25 02:31:00,32.0,30.0,-100.00,NNE,25,1.0,3.0,91,-99.99,,,-99.99,,2013-05-25 08:31:00,
2013-05-25 02:32:00,32.0,29.0,-100.00,NNE,25,3.0,3.0,89,-99.99,,,-99.99,,2013-05-25 08:32:00,
2013-05-25 02:42:00,32.0,29.0,-100.00,NNE,25,3.0,3.0,89,-99.99,,,-99.99,,2013-05-25 08:42:00,
2013-05-25 02:51:00,32.0,29.0,-100.00,NNE,25,3.0,3.0,89,-99.99,,,-99.99,,2013-05-25 08:51:00,
2013-05-25 03:01:00,32.0,29.0,-100.00,NNE,25,3.0,3.0,89,-99.99,,,-99.99,,2013-05-25 09:01:00,
2013-05-25 03:11:00,32.0,30.0,-100.00,NNE,25,1.0,3.0,91,-99.99,,,-99.99,,2013-05-25 09:11:00,
2013-05-25 03:21:00,32.0,30.0,-100.00,NNE,25,1.0,3.0,91,-99.99,,,-99.99,,2013-05-25 09:21:00,
2013-05-25 04:01:00,32.0,30.0,-100.00,NE,35,4.0,5.0,92,-99.99,,,-99.99,,2013-05-25 10:01:00,
2013-05-25 04:12:00,33.0,31.0,-100.00,ESE,110,0.0,1.0,92,-99.99,,,-99.99,,2013-05-25 10:12:00,
2013-05-25 04:22:00,33.0,31.0,-100.00,ESE,110,0.0,1.0,92,-99.99,,,-99.99,,2013-05-25 10:22:00,
2013-05-25 04:32:00,32.0,30.0,-100.00,NE,35,4.0,5.0,92,-99.99,,,-99.99,,2013-05-25 10:32:00,
2013-05-25 04:42:00,32.0,30.0,-100.00,NE,35,4.0,5.0,92,-99.99,,,-99.99,,2013-05-25 10:42:00,
2013-05-25 04:52:00,32.0,30.0,-100.00,NE,35,4.0,5.0,92,-99.99,,,-99.99,,2013-05-25 10:52:00,
2013-05-25 05:12:00,32.0,30.0,-100.00,NE,45,3.0,4.0,92,-99.99,,,-99.99,,2013-05-25 11:12:00,
2013-05-25 05:21:00,32.0,30.0,-100.00,NE,45,3.0,4.0,92,-99.99,,,-99.99,,2013-05-25 11:21:00,
2013-05-25 05:32:00,32.0,30.0,-100.00,ENE,75,1.0,3.0,93,-99.99,,,-99.99,,2013-05-25 11:32:00,
2013-05-25 05:41:00,32.0,30.0,-100.00,ENE,75,1.0,3.0,93,-99.99,,,-99.99,,2013-05-25 11:41:00,
2013-05-25 05:52:00,32.0,30.0,-100.00,ENE,70,3.0,5.0,92,-99.99,,,-99.99,,2013-05-25 11:52:00,
2013-05-25 06:00:00,31.0,29.0,-100.00,ENE,70,1.0,2.0,92,-99.99,,,-99.99,,2013-05-25 12:00:00,
2013-05-25 06:01:00,32.0,30.0,-100.00,ENE,70,3.0,5.0,92,-99.99,,,-99.99,,2013-05-25 12:01:00,
2013-05-25 06:12:00,32.0,30.0,-100.00,ENE,65,1.0,3.0,92,-99.99,,,-99.99,,2013-05-25 12:12:00,
2013-05-25 06:21:00,32.0,30.0,-100.00,ENE,65,1.0,3.0,92,-99.99,,,-99.99,,2013-05-25 12:21:00,
2013-05-25 06:32:00,31.0,29.0,-100.00,ENE,70,1.0,2.0,92,-99.99,,,-99.99,,2013-05-25 12:32:00,
2013-05-25 06:42:00,31.0,29.0,-100.00,ENE,70,1.0,2.0,92,-99.99,,,-99.99,,2013-05-25 12:42:00,
2013-05-25 06:52:00,31.0,29.0,-100.00,ENE,70,1.0,2.0,92,-99.99,,,-99.99,,2013-05-25 12:52:00,
2013-05-25 07:00:00,34.0,31.0,-100.00,NE,40,1.0,3.0,88,-99.99,,,-99.99,,2013-05-25 13:00:00,
2013-05-25 07:11:00,32.0,30.0,-100.00,NNE,30,1.0,1.0,92,-99.99,,,-99.99,,2013-05-25 13:11:00,
2013-05-25 07:21:00,32.0,30.0,-100.00,NNE,30,1.0,1.0,92,-99.99,,,-99.99,,2013-05-25 13:21:00,
2013-05-25 07:32:00,34.0,31.0,-100.00,NE,40,1.0,3.0,88,-99.99,,,-99.99,,2013-05-25 13:32:00,
2013-05-25 07:42:00,34.0,31.0,-100.00,NE,40,1.0,3.0,88,-99.99,,,-99.99,,2013-05-25 13:42:00,
2013-05-25 07:52:00,34.0,31.0,-100.00,NE,40,1.0,3.0,88,-99.99,,,-99.99,,2013-05-25 13:52:00,
2013-05-25 08:00:00,37.0,32.0,-100.00,South,185,0.0,1.0,82,-99.99,,,-99.99,,2013-05-25 14:00:00,
2013-05-25 08:11:00,35.0,32.0,-100.00,North,0,0.0,1.0,86,-99.99,,,-99.99,,2013-05-25 14:11:00,
2013-05-25 08:22:00,35.0,32.0,-100.00,North,0,0.0,1.0,86,-99.99,,,-99.99,,2013-05-25 14:22:00,
2013-05-25 08:32:00,37.0,32.0,-100.00,South,185,0.0,1.0,82,-99.99,,,-99.99,,2013-05-25 14:32:00,
2013-05-25 08:42:00,37.0,32.0,-100.00,South,185,0.0,1.0,82,-99.99,,,-99.99,,2013-05-25 14:42:00,
2013-05-25 08:52:00,37.0,32.0,-100.00,South,185,0.0,1.0,82,-99.99,,,-99.99,,2013-05-25 14:52:00,
2013-05-25 09:02:00,41.0,33.0,-100.00,West,280,2.0,5.0,74,-99.99,,,-99.99,,2013-05-25 15:02:00,
2013-05-25 09:11:00,38.0,32.0,-100.00,SW,215,1.0,3.0,79,-99.99,,,-99.99,,2013-05-25 15:11:00,
2013-05-25 09:22:00,38.0,32.0,-100.00,SW,215,1.0,3.0,79,-99.99,,,-99.99,,2013-05-25 15:22:00,
2013-05-25 09:33:00,41.0,33.0,-100.00,West,280,2.0,5.0,74,-99.99,,,-99.99,,2013-05-25 15:33:00,
2013-05-25 09:43:00,41.0,33.0,-100.00,West,280,2.0,5.0,74,-99.99,,,-99.99,,2013-05-25 15:43:00,
2013-05-25 09:53:00,41.0,33.0,-100.00,West,280,2.0,5.0,74,-99.99,,,-99.99,,2013-05-25 15:53:00,
2013-05-25 10:01:00,41.0,35.0,-100.00,NW,315,6.0,8.0,80,-99.99,,,-99.99,,2013-05-25 16:01:00,
2013-05-25 10:12:00,42.0,33.0,-100.00,WNW,290,4.0,6.0,70,-99.99,,,-99.99,,2013-05-25 16:12:00,
2013-05-25 10:23:00,42.0,33.0,-100.00,WNW,290,4.0,6.0,70,-99.99,,,-99.99,,2013-05-25 16:23:00,
2013-05-25 10:32:00,41.0,35.0,-100.00,NW,315,6.0,8.0,80,-99.99,,,-99.99,,2013-05-25 16:32:00,
2013-05-25 10:42:00,41.0,35.0,-100.00,NW,315,6.0,8.0,80,-99.99,,,-99.99,,2013-05-25 16:42:00,
2013-05-25 10:52:00,41.0,35.0,-100.00,NW,315,6.0,8.0,80,-99.99,,,-99.99,,2013-05-25 16:52:00,
2013-05-25 11:01:00,46.0,35.0,-100.00,WNW,300,6.0,8.0,65,-99.99,,,-99.99,,2013-05-25 17:01:00,
2013-05-25 11:11:00,44.0,35.0,-100.00,WNW,295,4.0,6.0,70,-99.99,,,-99.99,,2013-05-25 17:11:00,
2013-05-25 11:22:00,44.0,35.0,-100.00,WNW,295,4.0,6.0,70,-99.99,,,-99.99,,2013-05-25 17:22:00,
2013-05-25 11:32:00,46.0,35.0,-100.00,WNW,300,6.0,8.0,65,-99.99,,,-99.99,,2013-05-25 17:32:00,
2013-05-25 11:42:00,46.0,35.0,-100.00,WNW,300,6.0,8.0,65,-99.99,,,-99.99,,2013-05-25 17:42:00,
2013-05-25 11:52:00,46.0,35.0,-100.00,WNW,300,6.0,8.0,65,-99.99,,,-99.99,,2013-05-25 17:52:00,
2013-05-25 12:32:00,47.0,32.0,-100.00,NW,315,4.0,8.0,55,-99.99,,,-99.99,,2013-05-25 18:32:00,
2013-05-25 12:42:00,47.0,32.0,-100.00,NW,315,4.0,8.0,55,-99.99,,,-99.99,,2013-05-25 18:42:00,
2013-05-25 12:52:00,48.0,31.0,-100.00,NW,310,5.0,9.0,52,-99.99,,,-99.99,,2013-05-25 18:52:00,
2013-05-25 13:01:00,48.0,31.0,-100.00,NW,310,5.0,9.0,52,-99.99,,,-99.99,,2013-05-25 19:01:00,
2013-05-25 13:11:00,48.0,32.0,-100.00,NW,320,4.0,10.0,53,-99.99,,,-99.99,,2013-05-25 19:11:00,
2013-05-25 13:21:00,48.0,32.0,-100.00,NW,320,4.0,10.0,53,-99.99,,,-99.99,,2013-05-25 19:21:00,
2013-05-25 13:31:00,50.0,35.0,-100.00,NW,305,6.0,8.0,56,-99.99,,,0.00,,2013-05-25 19:31:00,
2013-05-25 13:42:00,50.0,35.0,-100.00,NW,305,6.0,8.0,56,-99.99,,,0.00,,2013-05-25 19:42:00,
2013-05-25 13:52:00,50.0,35.0,-100.00,NW,305,6.0,8.0,56,-99.99,,,0.00,,2013-05-25 19:52:00,
2013-05-25 14:01:00,52.0,30.0,-100.00,WNW,300,1.0,4.0,43,-99.99,,,0.00,,2013-05-25 20:01:00,
2013-05-25 14:11:00,51.0,32.0,-100.00,WNW,295,1.0,3.0,48,-99.99,,,0.00,,2013-05-25 20:11:00,
2013-05-25 14:21:00,51.0,32.0,-100.00,WNW,295,1.0,3.0,48,-99.99,,,0.00,,2013-05-25 20:21:00,
2013-05-25 14:32:00,52.0,30.0,-100.00,WNW,300,1.0,4.0,43,-99.99,,,0.00,,2013-05-25 20:32:00,
2013-05-25 14:42:00,52.0,30.0,-100.00,WNW,300,1.0,4.0,43,-99.99,,,0.00,,2013-05-25 20:42:00,
2013-05-25 14:52:00,52.0,30.0,-100.00,WNW,300,1.0,4.0,43,-99.99,,,0.00,,2013-05-25 20:52:00,
2013-05-25 15:00:00,47.0,33.0,-100.00,West,275,2.0,7.0,58,-99.99,,,0.00,,2013-05-25 21:00:00,
2013-05-25 15:11:00,48.0,35.0,-100.00,SSW,195,2.0,8.0,61,-99.99,,,-99.99,,2013-05-25 21:11:00,
2013-05-25 15:21:00,48.0,35.0,-100.00,SSW,195,2.0,8.0,61,-99.99,,,-99.99,,2013-05-25 21:21:00,
2013-05-25 15:33:00,47.0,33.0,-100.00,West,275,2.0,7.0,58,-99.99,,,0.00,,2013-05-25 21:33:00,
2013-05-25 15:43:00,47.0,33.0,-100.00,West,275,2.0,7.0,58,-99.99,,,0.00,,2013-05-25 21:43:00,
2013-05-25 15:53:00,47.0,33.0,-100.00,West,275,2.0,7.0,58,-99.99,,,0.00,,2013-05-25 21:53:00,
2013-05-25 16:01:00,48.0,38.0,-100.00,WNW,300,4.0,8.0,66,-99.99,,,0.00,,2013-05-25 22:01:00,
2013-05-25 16:12:00,47.0,39.0,-100.00,West,270,10.0,14.0,75,-99.99,,,0.00,,2013-05-25 22:12:00,
2013-05-25 16:22:00,47.0,39.0,-100.00,West,270,10.0,14.0,75,-99.99,,,0.00,,2013-05-25 22:22:00,
2013-05-25 16:32:00,48.0,38.0,-100.00,WNW,300,4.0,8.0,66,-99.99,,,0.00,,2013-05-25 22:32:00,
2013-05-25 16:42:00,48.0,38.0,-100.00,WNW,300,4.0,8.0,66,-99.99,,,0.00,,2013-05-25 22:42:00,
2013-05-25 16:52:00,48.0,38.0,-100.00,WNW,300,4.0,8.0,66,-99.99,,,0.00,,2013-05-25 22:52:00,
2013-05-25 17:01:00,46.0,41.0,-100.00,WNW,295,8.0,11.0,80,-99.99,,,0.00,,2013-05-25 23:01:00,
2013-05-25 17:12:00,48.0,40.0,-100.00,WNW,285,12.0,15.0,73,-99.99,,,0.00,,2013-05-25 23:12:00,
2013-05-25 17:21:00,48.0,40.0,-100.00,WNW,285,12.0,15.0,73,-99.99,,,0.00,,2013-05-25 23:21:00,
2013-05-25 17:32:00,46.0,41.0,-100.00,WNW,295,8.0,11.0,80,-99.99,,,0.00,,2013-05-25 23:32:00,
2013-05-25 17:42:00,46.0,41.0,-100.00,WNW,295,8.0,11.0,80,-99.99,,,0.00,,2013-05-25 23:42:00,
2013-05-25 17:52:00,46.0,41.0,-100.00,WNW,295,8.0,11.0,80,-99.99,,,0.00,,2013-05-25 23:52:00,
2013-05-25 18:32:00,47.0,36.0,-100.00,NNW,340,3.0,8.0,65,-99.99,,,0.00,,2013-05-26 00:32:00,
2013-05-25 18:43:00,47.0,36.0,-100.00,NNW,340,3.0,8.0,65,-99.99,,,0.00,,2013-05-26 00:43:00,
2013-05-25 18:52:00,47.0,36.0,-100.00,NNW,340,3.0,8.0,65,-99.99,,,0.00,,2013-05-26 00:52:00,
2013-05-25 19:01:00,47.0,36.0,-100.00,NNW,340,3.0,8.0,65,-99.99,,,0.00,,2013-05-26 01:01:00,
2013-05-25 19:11:00,50.0,37.0,-100.00,SSE,160,1.0,3.0,60,-99.99,,,0.00,,2013-05-26 01:11:00,
2013-05-25 19:21:00,50.0,37.0,-100.00,SSE,160,1.0,3.0,60,-99.99,,,0.00,,2013-05-26 01:21:00,
2013-05-25 19:32:00,51.0,35.0,-100.00,SSW,200,1.0,1.0,55,-99.99,,,0.00,,2013-05-26 01:32:00,
2013-05-25 19:42:00,51.0,35.0,-100.00,SSW,200,1.0,1.0,55,-99.99,,,0.00,,2013-05-26 01:42:00,
2013-05-25 19:52:00,51.0,35.0,-100.00,SSW,200,1.0,1.0,55,-99.99,,,0.00,,2013-05-26 01:52:00,
2013-05-25 20:00:00,50.0,35.0,-100.00,WNW,300,4.0,8.0,57,-99.99,,,0.00,,2013-05-26 02:00:00,
2013-05-25 20:11:00,50.0,35.0,-100.00,NNW,335,3.0,4.0,56,-99.99,,,0.00,,2013-05-26 02:11:00,
2013-05-25 20:21:00,50.0,35.0,-100.00,NNW,335,3.0,4.0,56,-99.99,,,0.00,,2013-05-26 02:21:00,
2013-05-25 20:32:00,50.0,35.0,-100.00,WNW,300,4.0,8.0,57,-99.99,,,0.00,,2013-05-26 02:32:00,
2013-05-25 20:41:00,50.0,35.0,-100.00,WNW,300,4.0,8.0,57,-99.99,,,0.00,,2013-05-26 02:41:00,
2013-05-25 20:52:00,50.0,35.0,-100.00,WNW,300,4.0,8.0,57,-99.99,,,0.00,,2013-05-26 02:52:00,
2013-05-25 21:01:00,48.0,35.0,-100.00,North,355,1.0,4.0,60,-99.99,,,0.00,,2013-05-26 03:01:00,
2013-05-25 21:11:00,50.0,35.0,-100.00,NW,315,3.0,4.0,56,-99.99,,,0.00,,2013-05-26 03:11:00,
2013-05-25 21:21:00,50.0,35.0,-100.00,NW,315,3.0,4.0,56,-99.99,,,0.00,,2013-05-26 03:21:00,
2013-05-25 21:33:00,48.0,35.0,-100.00,North,355,1.0,4.0,60,-99.99,,,0.00,,2013-05-26 03:33:00,
2013-05-25 21:42:00,48.0,35.0,-100.00,North,355,1.0,4.0,60,-99.99,,,0.00,,2013-05-26 03:42:00,
2013-05-25 21:53:00,48.0,35.0,-100.00,North,355,1.0,4.0,60,-99.99,,,0.00,,2013-05-26 03:53:00,
2013-05-25 22:01:00,44.0,36.0,-100.00,North,5,1.0,3.0,73,-99.99,,,0.00,,2013-05-26 04:01:00,
2013-05-25 22:12:00,45.0,36.0,-100.00,ENE,60,3.0,4.0,71,-99.99,,,0.00,,2013-05-26 04:12:00,
2013-05-25 22:23:00,45.0,36.0,-100.00,ENE,60,3.0,4.0,71,-99.99,,,0.00,,2013-05-26 04:23:00,
2013-05-25 22:33:00,44.0,36.0,-100.00,North,5,1.0,3.0,73,-99.99,,,0.00,,2013-05-26 04:33:00,
2013-05-25 22:42:00,44.0,36.0,-100.00,North,5,1.0,3.0,73,-99.99,,,0.00,,2013-05-26 04:42:00,
2013-05-25 22:52:00,44.0,36.0,-100.00,North,5,1.0,3.0,73,-99.99,,,0.00,,2013-05-26 04:52:00,
2013-05-25 23:01:00,41.0,35.0,-100.00,NE,40,2.0,4.0,81,-99.99,,,0.00,,2013-05-26 05:01:00,
2013-05-25 23:12:00,42.0,35.0,-100.00,NE,35,2.0,4.0,76,-99.99,,,0.00,,2013-05-26 05:12:00,
2013-05-25 23:22:00,42.0,35.0,-100.00,NE,35,2.0,4.0,76,-99.99,,,0.00,,2013-05-26 05:22:00,
2013-05-25 23:32:00,41.0,35.0,-100.00,NE,40,2.0,4.0,81,-99.99,,,0.00,,2013-05-26 05:32:00,
2013-05-25 23:42:00,41.0,35.0,-100.00,NE,40,2.0,4.0,81,-99.99,,,0.00,,2013-05-26 05:42:00,
2013-05-25 23:52:00,41.0,35.0,-100.00,NE,40,2.0,4.0,81,-99.99,,,0.00,,2013-05-26 05:52:00,